Tracking 27112 objects as of 26-Mar-2023
HD Live streaming from Space Station
objects crossing your sky now

EXPRESS 2

Track EXPRESS 2 now!
EXPRESS 2 is classified as:


NORAD ID: 24435
Int'l Code: 1996-058A
Perigee: 35,754.7 km
Apogee: 35,843.3 km
Inclination: 14.7 °
Period: 1,436.4 minutes
Semi major axis: 42169 km
RCS: 10 m2 (large)
Launch date: September 26, 1996
Source: Commonwealth of Independent States (former USSR) (CIS)
Launch site: TYURATAM MISSILE AND SPACE COMPLEX (TTMTR)
Your satellite tracking list
Your tracking list is empty




NASA's NSSDC Master Catalog

Two Line Element Set (TLE):
1 24435U 96058A   23083.84493934  .00000086  00000-0  00000-0 0  9990
2 24435  14.6702   3.3804 0010497   7.9814 163.0660  1.00253036 96971
Source of the keplerian elements: AFSPC